METEOR 2-11 DEB

Satellite information

Favourite Embed

Satellite Type and Status

DEBRISIN ORBIT

Key statistics

Satellite METEOR 2-11 DEB at a glance.

Uptime

15041

Days in orbit

Revolutions

≈ 14.0

Per day

Orbit

LEO

Low Earth Orbit

Inclination

82.5

Latest

Satellite identification and parameters

Extended collection of information and parameters for METEOR 2-11 DEB.

Object identification

Identified? True

Debris? True

Object name: METEOR 2-11 DEB

International designator: 1984-072G

Object number (NORAD): 40705

Object ID (CCSDS): 40705

Country: COMMONWEALTH OF INDEPENDENT STATES (CIS)

Current information (Y/N): Y

RCS size: SMALL

Orbital parameters

Period: 103.102 minutes

Inclination: 82.5198 deg

SMA: 7283.484 km

Apoapsis: 925.891 km

Periapsis: 884.807 km

RAAN: 238.6038 deg

Eccentricy: 0.00282038

Argument of periapsis: 131.6807 deg

Mean anomaly: 228.6781 deg

Mean motion: 13.96670738 rev/day

Mean motion (dot): 0.00001147 rev/day2

B* drag term: 0.00081426017 1/REarth

Two-line elements (TLE)

Creation date: Sept. 6, 2025, 10:23 a.m.

Reference frame: TEME

Reference center: EARTH

Epoch: Sept. 6, 2025, 5:55 a.m. UTC

TLE line 0: 0 METEOR 2-11 DEB

TLE line 1: 1 40705U 84072G 25249.24714256 .00001147 00000-0 81426-3 0 9997

TLE line 2: 2 40705 82.5198 238.6038 0028204 131.6807 228.6781 13.96670738547687

Live tracking on map

Real-time ground track for satellite METEOR 2-11 DEB.

In-orbit conjunctions

A list of the most updated potential collisions computed for object METEOR 2-11 DEB.

Target Orbit TCA Probability of collision Miss distance Type
FENGYUN 1C DEB SSO 2024-11-17 13:08:43 0.0001335094 711.0 (m) DEBRIS
FENGYUN 1C DEB SSO 2024-11-16 06:08:56 0.0002882137 537.0 (m) DEBRIS
FENGYUN 1C DEB SSO 2024-11-10 01:53:28 0.0001497135 253.0 (m) DEBRIS

Associated space launch

Second generation soviet meteorological satellite

METEOR 2-11 DEB was lifted into orbit during the mission ‘Tsiklon-3 | Meteor-2 11’, on board a Tsiklon-3 space rocket.

The launch took place on July 5, 1984, 3:35 a.m. from 32/2.

For more information about the launch, click the button.

Launch to space Tsiklon-3 | Meteor-2 11
Tsiklon-3 | Meteor-2 11

Agency: N/A

Status: Launch Successful

Launch date: July 5, 1984, 3:35 a.m. UTC

Rocket: Tsiklon-3

Launch pad: 32/2

Location: Plesetsk Cosmodrome, Russian Federation

...

Latest news about this satellite

There are no fresh news available about this satellite. Check back as we update our databases every day.


Newsletter sign-up

Weekly statistics, charts and insights to help you stay on top of the space industry.